DW7831 Weather Reports


time (UTC)temp
C
wind
direction
speed
KPH
gust
KPH
rain 1hr
cm
rain 24hr
cm
rain mn
cm
humidity
%
barometer
mb
20260506161548 13 219 1.6 0.0 0.00 0.00 0.89 100 1005.3
20260506160051 13 217 1.6 0.0 0.00 0.00 0.81 100 1005.3
20260506154538 13 212 1.6 0.0 0.00 0.00 0.79 100 1005.2
20260506153045 13 182 4.8 0.0 0.00 0.00 0.71 100 1005.4
20260506151529 13 208 3.2 0.0 0.00 0.00 0.71 100 1005.5
20260506150031 13 191 3.2 0.0 0.00 0.00 0.69 100 1005.7
20260506144525 13 190 4.8 0.0 0.00 0.00 0.66 100 1005.7
20260506143019 13 171 4.8 0.0 0.00 0.00 0.61 100 1005.7
20260506141514 13 178 4.8 0.0 0.00 0.00 0.56 100 1006.4
20260506140015 13 195 3.2 0.0 0.00 0.00 0.51 100 1006.4
20260506134506 12 202 3.2 0.0 0.00 0.00 0.43 100 1006.4
20260506133002 12 198 1.6 0.0 0.00 0.00 0.38 100 1006.4
20260506131558 12 198 3.2 0.0 0.00 0.00 0.36 100 1006.1
20260506124551 12 219 0.0 0.0 0.00 0.00 0.30 100 1006.0
20260506123047 12 219 0.0 0.0 0.00 0.00 0.28 100 1006.1
20260506121542 12 219 0.0 0.0 0.00 0.00 0.25 100 1006.5
20260506114536 13 219 1.6 0.0 0.00 0.00 0.18 18 1007.0
20260506113039 13 219 0.0 0.0 0.00 0.00 0.13 33 1006.9
20260506111528 14 219 3.2 0.0 0.00 0.00 0.08 50 1006.7
20260506104519 15 217 0.0 0.0 0.00 0.00 0.03 58 1006.2
20260506103015 15 217 1.6 0.0 0.00 0.00 0.03 58 1006.2
20260506101513 15 217 3.2 0.0 0.00 0.00 0.03 57 1006.0
20260506094504 15 229 1.6 0.0 0.00 0.00 0.03 56 1006.0
20260506093100 14 219 1.6 0.0 0.00 0.00 0.03 54 1006.0
20260506091600 13 219 1.6 0.0 0.00 0.00 0.03 43 1005.9
20260506084552 11 225 0.0 0.0 0.00 0.00 0.03 100 1005.9
20260506083046 11 225 0.0 0.0 0.00 0.00 0.03 100 1006.3
20260506081543 11 225 0.0 0.0 0.00 0.00 0.03 100 1006.3
20260506073030 11 225 0.0 0.0 0.00 0.00 0.03 100 1006.8
20260506071526 11 225 0.0 0.0 0.00 0.00 0.03 100 1006.9
20260506061509 11 225 0.0 0.0 0.00 0.00 0.03 100 1007.7
20260506044546 12 225 0.0 0.0 0.00 0.00 0.03 100 1008.3
20260506043042 12 225 1.6 0.0 0.00 0.00 0.03 100 1008.7
20260506041537 13 224 0.0 0.0 0.00 0.00 0.03 100 1008.5
20260506034531 13 223 0.0 0.0 0.00 0.00 0.46 100 1008.4
20260506033025 13 223 0.0 0.0 0.00 0.00 0.46 100 1008.1
20260506031521 13 223 0.0 0.0 0.00 0.00 0.46 100 1008.0
20260506024532 14 223 0.0 0.0 0.00 0.00 0.43 100 1008.0
20260506023013 14 223 0.0 0.0 0.00 0.00 0.43 100 1007.9
20260506021506 14 223 0.0 0.0 0.00 0.00 0.43 1 1007.9
20260506014501 15 223 0.0 0.0 0.00 0.00 0.43 15 1007.8
20260506013001 15 223 0.0 0.0 0.00 0.00 0.43 25 1007.7
20260506011501 15 223 0.0 0.0 0.00 0.00 0.43 26 1007.3
20260506004559 15 223 0.0 0.0 0.00 0.00 0.43 28 1007.3
20260506003059 15 223 0.0 0.0 0.00 0.00 0.43 28 1007.3
20260506001559 15 223 0.0 0.0 0.00 0.00 0.43 28 1006.9
20260506000159 15 223 0.0 0.0 0.00 0.00 0.43 30 1006.9
20260505234559 15 224 0.0 0.0 0.00 0.00 0.43 33 1006.9
20260505233058 15 223 0.0 0.0 0.00 0.00 0.43 33 1006.8
20260505231558 15 223 0.0 0.0 0.00 0.00 0.43 30 1006.3
20260505230158 15 223 0.0 0.0 0.00 0.00 0.43 29 1006.2
20260505224556 15 223 1.6 0.0 0.00 0.00 0.43 24 1006.4
20260505223108 15 213 1.6 0.0 0.00 0.00 0.43 13 1006.1
20260505221555 15 221 0.0 0.0 0.00 0.00 0.43 13 1005.9
20260505220156 15 222 0.0 0.0 0.00 0.00 0.43 21 1006.7
20260505214556 15 223 3.2 0.0 0.00 0.00 0.43 31 1006.8
20260505213155 16 259 6.4 0.0 0.00 0.00 0.41 48 1006.8
20260505211553 18 265 14.5 0.0 0.00 0.00 0.41 61 1006.8
20260505210154 22 238 9.7 0.0 0.00 0.00 0.33 36 1004.4
20260505204553 22 241 12.9 0.0 0.00 0.00 0.33 34 1004.0
20260505203055 23 232 12.9 0.0 0.00 0.00 0.33 33 1003.8
20260505201550 24 188 19.3 0.0 0.00 0.00 0.33 32 1003.9
20260505200150 24 216 17.7 0.0 0.00 0.00 0.33 33 1003.8
20260505194603 24 232 17.7 0.0 0.00 0.00 0.33 32 1003.8
20260505193048 24 246 14.5 0.0 0.00 0.00 0.33 35 1003.8
20260505191545 24 219 16.1 0.0 0.00 0.00 0.33 33 1004.3
20260505190145 23 274 16.1 0.0 0.00 0.00 0.33 36 1004.3
20260505184543 23 232 11.3 0.0 0.00 0.00 0.33 38 1004.3
20260505183044 23 257 17.7 0.0 0.00 0.00 0.33 38 1004.5
20260505181540 22 192 16.1 0.0 0.00 0.00 0.33 39 1005.0
20260505180140 23 290 19.3 0.0 0.00 0.00 0.33 40 1005.1
20260505174546 23 211 17.7 0.0 0.00 0.00 0.33 40 1005.1
20260505173044 22 218 16.1 0.0 0.00 0.00 0.33 40 1005.2
20260505171537 22 242 16.1 0.0 0.00 0.00 0.33 40 1005.2
20260505170136 23 212 17.7 0.0 0.00 0.00 0.33 41 1005.6
20260505164547 23 213 11.3 0.0 0.00 0.00 0.33 42 1005.7
20260505163032 23 194 17.7 0.0 0.00 0.00 0.33 41 1005.8